Regional Weather Roundup
Issued by NWS

Home | Current Version | Previous Version | Graphics & Text | Print | Product List | Glossary On
Versions: 1 2 3 4 5 6 7 8 9 10 11 12 13 14 15 16 17 18 19 20 21 22 23 24 25 26 27 28 29 30 31 32 33 34 35 36 37 38 39 40 41 42 43 44 45 46 47 48 49
000
ASUS45 KTFX 292310
RWRMT
MONTANA REGIONAL WEATHER ROUNDUP
NATIONAL WEATHER SERVICE GREAT FALLS MT
500 PM MDT WED JUL 29 2015

NOTE: "FAIR" INDICATES FEW OR NO CLOUDS BELOW 12000 FEET WITH NO
SIGNIFICANT WEATHER AND/OR OBSTRUCTIONS TO VISIBILITY.

MTZ001>007-043-300000-
WEST OF THE DIVIDE

CITY           SKY/WX    TMP DP  RH WIND       PRES   REMARKS
KALISPELL      PTCLDY    81  40  23 SE13      30.13F
MISSOULA       SUNNY     81  39  22 CALM      30.19F
BUTTE          SUNNY     75  35  23 N9        30.30F
MULLAN PASS    SUNNY     70  35  27 VRB3      30.35F
DEER LODGE       N/A     75  39  27 CALM      30.30S
EUREKA           N/A     84  36  17 SW10G18   30.12F
HAMILTON         N/A     81  37  21 E6        30.20F
LIBBY            N/A     84  34  16 NE6       30.14F
PLAINS           N/A     87  42  20 SW5       30.14F
RONAN            N/A     82  42  24 SE5       30.21F
$$

MTZ008-052>055-300000-
SOUTHWEST MONTANA

CITY           SKY/WX    TMP DP  RH WIND       PRES   REMARKS
BOZEMAN        SUNNY     79  37  22 E5        30.25F
DILLON         SUNNY     77  40  26 S8        30.26F
W YELLOWSTONE  SUNNY     68  32  26 W10       30.38F
TWIN BRIDGES     N/A     78  38  23 SE1       30.23F
$$

MTZ009-010-012-014-046-048-049-054-300000-
EAST SLOPES AND CENTRAL MONTANA

CITY           SKY/WX    TMP DP  RH WIND       PRES   REMARKS
CUT BANK       MOSUNNY   83  35  18 W18       30.13F
GREAT FALLS    SUNNY     82  36  19 SW14G23   30.15F
MALMSTROM AFB  SUNNY     80  34  18 W12G21    30.15F
HELENA         SUNNY     82  36  19 SW15G21   30.21S
CONRAD           N/A     82  42  24 W9        30.15F
$$

MTZ011-013-016-021-045-047-050-051-300000-
NORTH CENTRAL MONTANA

CITY           SKY/WX    TMP DP  RH WIND       PRES   REMARKS
HAVRE          MOSUNNY   81  41  24 SW15      30.06F
LEWISTOWN      SUNNY     78  35  21 NW13G20   30.19F
CHINOOK          N/A     82  43  24 W13G20    30.07F
FORT BENTON      N/A     82  36  18 SW13G20   30.10F
$$

MTZ017>020-022>027-061-062-300000-
NORTHEAST MONTANA

CITY           SKY/WX    TMP DP  RH WIND       PRES   REMARKS
GLASGOW        SUNNY     81  40  23 W8        30.08F
JORDAN           N/A     81  41  24 W12       30.12F
SIDNEY         MOSUNNY  N/A N/A N/A W17G23    30.07S
WOLF POINT     MOSUNNY   85  44  23 W16       30.07F
MALTA            N/A     81  48  31 W2        30.05F
PLENTYWOOD       N/A     77  46  33 NW12G22   30.06R
POPLAR           N/A     81  46  30 NW7       30.07F
SCOBEY           N/A     78  46  32 NW10      30.07S
$$

MTZ028>42-056>058-300000-
SOUTHCENTRAL AND SOUTHEAST MONTANA

CITY           SKY/WX    TMP DP  RH WIND       PRES   REMARKS
BAKER          MOSUNNY   80  39  23 W15G24    30.15S
BILLINGS       MOSUNNY   82  36  19 VRB3      30.18S
LIVINGSTON     SUNNY     81  37  20 W13       30.23F
MILES CITY     PTSUNNY   84  41  21 NW10G18   30.12F
EKALAKA          N/A     79  34  19 W14       30.15S
FORSYTH          N/A     82  37  20 SW8G16    30.13F
LAUREL           N/A     83  36  18 S6        30.15F
ROUNDUP          N/A     81  33  17 SW16      30.07F
$$

REGIONAL REPORTS...DAKOTAS

CITY           SKY/WX    TMP DP  RH WIND       PRES   REMARKS
WILLISTON      MOSUNNY   83  43  24 NW21G30   30.05S
MINOT          SUNNY     81  48  31 W21G31    29.97S
DICKINSON      MOSUNNY   80  44  27 NW18G25   30.08F
BEACH          FAIR      81  39  22 NW16G24   30.13S
CROSBY         FAIR      77  48  36 W17G25    30.03R
BISMARCK       MOSUNNY   83  46  27 W16G23    30.04S
GRAND FORKS    MOSUNNY   81  53  37 W26G40    29.84R
FARGO          MOSUNNY   82  55  39 W25G31    29.90F
BUFFALO SD       N/A     82  37  20 W20G29    30.09F
RAPID CITY     SUNNY     84  43  23 CALM      30.17F
$$

REGIONAL REPORTS...WYOMING/IDAHO/WASHINGTON

CITY           SKY/WX    TMP DP  RH WIND       PRES   REMARKS
GILLETTE       SUNNY     81  32  17 MISG      30.23F
SHERIDAN       SUNNY     83  36  18 NW7       30.21F
BUFFALO WY     SUNNY     80  32  17 VRB5      30.25F
CODY           SUNNY     79  32  18 NE6       30.24F
YELLOWSTONE LA   N/A     67  29  24 W10       30.46F
IDAHO FALLS    SUNNY     79  31  17 VRB5      30.30F
SALMON         SUNNY     79  43  27 N5        30.20F
BOISE          SUNNY     88  31  13 VRB5      30.16F
SPOKANE        MOSUNNY   86  31  13 S8        30.15F
$$

REGIONAL REPORTS...ALBERTA

CITY           SKY/WX    TMP DP  RH WIND       PRES   REMARKS
EDMONTON       PTSUNNY   66  52  59 W6        30.03F
CALGARY        MOSUNNY   73  39  29 W20G29    30.09F
LETHBRIDGE     PTSUNNY   82  37  20 W21G30    30.06F
MEDICINE HAT   PTSUNNY   82  41  23 SW8G20    30.03F
WATERTON GATE    N/A     77  37  24 SW16G26     N/A
CARDSTON         N/A     79  36  21 W9G17       N/A
MILK RIVER       N/A     82  39  21 W15         N/A
ONEFOUR          N/A     79  39  24 NW17G23     N/A
$$

REGIONAL REPORTS...SASKATCHEWAN

CITY           SKY/WX    TMP DP  RH WIND       PRES   REMARKS
SWIFT CURRENT  MOSUNNY   75  46  35 W10       30.04F
SASKATOON      MOSUNNY   77  46  33 NW17G26   29.97R
CYPRESS HILLS    N/A     72  39  30 W10         N/A
VAL MARIE        N/A     77  45  31 W12G17      N/A
ROCKGLEN         N/A     72  46  40 W10         N/A
$$


USA.gov is the U.S. government's official web portal to all federal, state and local government web resources and services.